period_start,C,m1,H,J0,J1,J2,J3,J4,J5,JA,JB,JC,JD,JJ,JK,JN,#
2014-10-25 00:04:05,0.04,0.41,0.00,23.27,27.80,30.67,4.80,26.82,1024.89,2033.85,3272.62,3206.67,3464.91,350.15,350.34,9.46,0000 0000 0000 0000 000000
2014-10-25 00:09:07,0.05,0.41,0.00,23.40,27.80,30.67,4.86,26.83,1024.92,2033.87,3272.02,3206.04,3464.23,349.95,349.82,9.49,0000 0000 0000 0000 000000
2014-10-25 00:14:08,0.01,0.41,0.00,23.29,27.80,30.65,4.85,26.90,1024.92,2033.84,3271.74,3206.00,3464.00,350.01,350.23,9.52,0000 0000 0000 0000 000000
2014-10-25 00:19:09,0.04,0.42,0.00,23.21,27.80,30.66,4.86,26.78,1024.96,2033.81,3271.03,3205.71,3463.71,350.09,350.18,9.55,0000 0000 0000 0000 000000
2014-10-25 00:24:10,0.05,0.42,0.00,23.22,27.80,30.67,4.79,26.67,1025.24,2033.87,3270.72,3205.09,3463.09,350.07,350.45,9.58,0000 0000 0000 0000 000000
2014-10-25 00:29:12,0.02,0.42,0.00,23.30,27.81,30.68,4.83,26.77,1025.37,2033.84,3270.05,3205.01,3463.00,350.08,350.40,9.61,0000 0000 0000 0000 000000
2014-10-25 00:34:13,-0.01,0.42,0.00,23.25,27.82,30.70,4.82,26.67,1025.39,2033.82,3269.99,3204.99,3462.97,350.41,350.81,9.64,0000 0000 0000 0000 000000
2014-10-25 00:39:14,0.03,0.42,0.00,23.23,27.82,30.70,4.82,26.88,1025.40,2033.71,3269.35,3204.93,3462.41,350.39,350.80,9.67,0000 0000 0000 0000 000000
2014-10-25 00:44:16,0.03,0.42,0.00,23.22,27.82,30.71,4.85,26.84,1025.40,2033.72,3269.02,3204.65,3462.05,350.38,350.87,9.70,0000 0000 0000 0000 000000
2014-10-25 00:49:17,0.04,0.42,0.00,23.21,27.82,30.75,4.87,26.68,1025.41,2033.86,3269.00,3204.22,3462.00,350.25,350.70,9.73,0000 0000 0000 0000 000000
2014-10-25 00:54:19,0.01,0.42,0.00,23.23,27.82,30.71,4.75,26.79,1025.42,2033.79,3268.31,3204.00,3461.82,349.85,350.37,9.75,0000 0000 0000 0000 000000
2014-10-25 00:59:20,0.11,0.42,0.00,23.24,27.82,30.70,4.79,26.68,1025.45,2033.66,3267.20,3203.04,3460.56,349.80,350.22,9.78,0000 0000 0000 0000 000000
2014-10-25 01:04:21,0.07,0.43,0.00,23.26,27.82,30.72,4.83,26.74,1025.47,2033.30,3265.56,3201.46,3458.93,349.96,350.44,9.81,0000 0000 0000 0000 000000
2014-10-25 01:09:22,0.06,0.43,0.00,23.24,27.82,30.71,4.81,26.74,1025.58,2033.39,3264.81,3200.92,3458.05,350.12,350.50,9.84,0000 0000 0000 0000 000000
2014-10-25 01:14:24,0.11,0.43,0.00,23.37,27.83,30.72,4.82,26.73,1025.67,2033.35,3263.83,3199.97,3457.19,349.88,350.27,9.87,0000 0000 0000 0000 000000
2014-10-25 01:19:25,0.09,0.43,0.00,23.46,27.84,30.64,4.83,26.80,1025.80,2033.16,3262.71,3198.78,3455.86,349.70,350.06,9.90,0000 0000 0000 0000 000000
2014-10-25 01:24:26,0.05,0.44,0.00,23.34,27.85,30.64,4.77,26.85,1025.88,2033.05,3261.76,3197.90,3454.89,349.54,350.14,9.93,0000 0000 0000 0000 000000
2014-10-25 01:29:28,0.06,0.44,0.00,23.26,27.85,30.66,4.83,26.65,1025.89,2033.02,3261.02,3197.11,3454.07,349.87,350.44,9.96,0000 0000 0000 0000 000000
2014-10-25 01:34:29,0.01,0.44,0.00,23.23,27.85,30.70,4.76,26.63,1025.90,2033.01,3260.73,3197.00,3454.00,349.54,350.00,9.99,0000 0000 0000 0000 000000
2014-10-25 01:39:30,0.04,0.44,0.00,23.25,27.85,30.73,4.83,26.91,1025.90,2033.01,3260.04,3196.88,3453.45,350.35,350.84,10.02,0000 0000 0000 0000 000000
2014-10-25 01:44:32,0.02,0.44,0.00,23.28,27.85,30.75,4.88,26.66,1025.91,2033.04,3259.93,3196.65,3453.07,350.11,350.59,10.05,0000 0000 0000 0000 000000
2014-10-25 01:49:33,0.04,0.44,0.00,23.26,27.85,30.75,4.89,26.68,1026.02,2033.03,3259.11,3196.07,3452.98,350.01,350.75,10.08,0000 0000 0000 0000 000000
2014-10-25 01:54:34,0.04,0.44,0.00,23.23,27.85,30.73,4.88,26.79,1026.28,2033.03,3258.53,3195.99,3452.50,350.04,350.70,10.11,0000 0000 0000 0000 000000
2014-10-25 01:59:35,0.02,0.44,0.00,23.26,27.85,30.75,4.87,26.79,1026.37,2033.03,3258.02,3195.76,3452.02,350.07,350.72,10.14,0000 0000 0000 0000 000000
2014-10-25 02:04:37,0.04,0.45,0.00,23.25,27.85,30.76,4.78,26.68,1026.38,2033.01,3257.42,3195.09,3451.96,349.46,350.16,10.16,0000 0000 0000 0000 000000
2014-10-25 02:09:38,0.03,0.45,0.00,23.27,27.85,30.76,4.84,26.68,1026.38,2033.03,3256.84,3194.95,3451.24,350.23,350.82,10.19,0000 0000 0000 0000 000000
2014-10-25 02:14:39,0.09,0.45,0.00,23.26,27.85,30.71,4.83,26.74,1026.38,2033.03,3255.78,3194.14,3450.68,350.30,351.07,10.22,0000 0000 0000 0000 000000
2014-10-25 02:19:41,0.10,0.45,0.00,23.29,27.85,30.73,4.76,26.65,1026.39,2033.03,3254.50,3193.36,3449.73,349.61,350.29,10.25,0000 0000 0000 0000 000000
2014-10-25 02:24:42,0.03,0.45,0.00,23.29,27.85,30.72,4.84,26.69,1026.41,2033.02,3253.59,3192.96,3449.02,350.25,350.85,10.28,0000 0000 0000 0000 000000
2014-10-25 02:29:43,0.03,0.45,0.00,23.32,27.85,30.70,4.80,26.66,1026.41,2033.02,3253.02,3192.55,3448.89,350.25,350.90,10.31,0000 0000 0000 0000 000000
2014-10-25 02:34:45,0.05,0.46,0.00,23.28,27.85,30.71,4.76,26.70,1026.41,2033.02,3252.66,3192.03,3448.14,349.51,350.21,10.34,0000 0000 0000 0000 000000
2014-10-25 02:39:46,0.01,0.46,0.00,23.27,27.85,30.70,4.80,26.87,1026.50,2033.01,3252.03,3191.99,3448.00,350.02,350.86,10.37,0000 0000 0000 0000 000000
2014-10-25 02:44:47,0.06,0.46,0.00,23.27,27.85,30.70,4.91,26.70,1026.78,2033.01,3251.64,3191.68,3447.67,350.15,351.03,10.40,0000 0000 0000 0000 000000
2014-10-25 02:49:48,0.03,0.46,0.00,23.28,27.85,30.70,4.80,26.68,1026.82,2033.00,3250.99,3191.03,3447.03,350.00,350.90,10.43,0000 0000 0000 0000 000000
2014-10-25 02:54:50,0.05,0.46,0.00,23.30,27.85,30.71,4.89,26.73,1026.87,2033.01,3250.18,3190.86,3446.59,350.13,350.97,10.46,0000 0000 0000 0000 000000
2014-10-25 02:59:51,0.04,0.46,0.00,23.27,27.85,30.69,4.77,26.78,1026.87,2033.00,3249.79,3190.18,3446.03,349.80,350.80,10.49,0000 0000 0000 0000 000000
2014-10-25 03:04:52,0.02,0.46,0.00,23.27,27.85,30.70,4.76,26.63,1026.89,2033.00,3249.07,3190.00,3445.98,349.35,350.34,10.52,0000 0000 0000 0000 000000
2014-10-25 03:09:53,0.02,0.46,0.00,23.29,27.85,30.69,4.82,26.71,1026.93,2033.00,3248.93,3189.97,3445.48,349.49,350.24,10.54,0000 0000 0000 0000 000000
2014-10-25 03:14:55,0.08,0.47,0.00,23.32,27.84,30.72,4.80,26.69,1026.94,2033.00,3248.00,3189.21,3444.74,349.89,350.62,10.57,0000 0000 0000 0000 000000
2014-10-25 03:19:56,0.12,0.47,0.00,23.33,27.84,30.71,4.89,26.67,1026.95,2033.00,3246.57,3188.27,3443.66,350.50,351.33,10.60,0000 0000 0000 0000 000000
2014-10-25 03:24:58,0.13,0.47,0.00,23.35,27.83,30.69,4.85,26.74,1027.13,2033.00,3244.85,3187.22,3442.42,349.76,350.52,10.63,0000 0000 0000 0000 000000
2014-10-25 03:29:59,0.07,0.47,0.00,23.30,27.83,30.65,4.82,26.63,1027.21,2033.00,3243.84,3186.41,3441.56,349.85,350.61,10.66,0000 0000 0000 0000 000000
2014-10-25 03:35:01,0.03,0.48,0.00,23.30,27.82,30.65,4.90,26.70,1027.32,2033.00,3243.07,3186.01,3441.01,350.47,351.41,10.69,0000 0000 0000 0000 000000
2014-10-25 03:40:02,0.00,0.48,0.00,23.30,27.82,30.70,4.85,26.77,1027.36,2033.01,3242.97,3186.00,3441.00,349.58,350.66,10.72,0000 0000 0000 0000 000000
2014-10-25 03:45:03,0.02,0.48,0.00,23.32,27.82,30.69,4.76,26.60,1027.36,2033.01,3242.38,3185.98,3440.91,349.96,350.93,10.75,0000 0000 0000 0000 000000
2014-10-25 03:50:04,0.05,0.48,0.00,23.28,27.82,30.66,4.79,26.64,1027.37,2033.00,3242.01,3185.53,3440.22,349.80,350.83,10.78,0000 0000 0000 0000 000000
2014-10-25 03:55:05,0.04,0.48,0.00,23.29,27.82,30.66,4.79,26.57,1027.39,2033.01,3241.42,3185.04,3440.00,349.71,350.65,10.81,0000 0000 0000 0000 000000
2014-10-25 04:00:07,0.01,0.48,0.00,23.32,27.82,30.67,4.82,26.62,1027.59,2033.01,3241.00,3184.99,3439.88,349.72,350.69,10.84,0000 0000 0000 0000 000000
2014-10-25 04:05:08,0.05,0.48,0.00,23.32,27.82,30.67,4.80,26.72,1027.79,2033.00,3240.56,3184.76,3439.23,349.39,350.76,10.87,0000 0000 0000 0000 000000
2014-10-25 04:10:09,0.04,0.48,0.00,23.30,27.82,30.63,4.81,26.59,1027.82,2033.01,3240.01,3184.05,3438.98,350.37,351.45,10.90,0000 0000 0000 0000 000000
2014-10-25 04:15:11,0.03,0.48,0.00,23.27,27.81,30.63,4.85,26.70,1027.84,2033.02,3239.69,3184.00,3438.68,350.41,351.62,10.93,0000 0000 0000 0000 000000
2014-10-25 04:20:12,0.03,0.49,0.00,23.29,27.80,30.64,4.87,26.67,1027.85,2033.01,3239.03,3183.74,3438.02,350.32,351.44,10.95,0000 0000 0000 0000 000000
2014-10-25 04:25:13,0.04,0.49,0.00,23.30,27.80,30.64,4.86,26.73,1027.85,2033.00,3238.66,3183.07,3437.83,350.34,351.66,10.98,0000 0000 0000 0000 000000
2014-10-25 04:30:14,0.03,0.49,0.00,23.31,27.80,30.63,4.85,26.57,1027.85,2033.00,3238.03,3182.99,3437.12,350.19,351.42,11.01,0000 0000 0000 0000 000000
2014-10-25 04:35:15,0.01,0.49,0.00,23.32,27.80,30.65,4.81,26.68,1027.85,2033.00,3237.92,3182.80,3437.00,349.77,350.90,11.04,0000 0000 0000 0000 000000
2014-10-25 04:40:17,0.07,0.49,0.00,23.34,27.80,30.62,4.85,26.75,1027.87,2033.00,3237.10,3182.09,3436.57,349.95,351.03,11.07,0000 0000 0000 0000 000000
2014-10-25 04:45:18,0.01,0.49,0.00,23.33,27.80,30.64,4.75,26.68,1027.88,2033.00,3236.99,3182.00,3436.05,349.61,350.87,11.10,0000 0000 0000 0000 000000
2014-10-25 04:50:19,0.02,0.49,0.00,23.35,27.80,30.61,4.92,26.83,1027.96,2033.00,3236.61,3181.97,3436.00,350.05,351.27,11.13,0000 0000 0000 0000 000000
2014-10-25 04:55:20,0.05,0.49,0.00,23.34,27.80,30.59,4.77,26.60,1028.10,2033.00,3236.03,3181.41,3435.66,349.58,350.79,11.16,0000 0000 0000 0000 000000
2014-10-25 05:00:21,0.02,0.49,0.00,23.35,27.80,30.60,4.84,26.72,1028.19,2033.00,3235.84,3181.02,3435.05,349.91,351.10,11.19,0000 0000 0000 0000 000000
2014-10-25 05:05:23,0.02,0.49,0.00,23.35,27.80,30.62,4.82,26.74,1028.23,2033.00,3235.14,3180.99,3434.99,349.79,351.20,11.22,0000 0000 0000 0000 000000
2014-10-25 05:10:24,0.02,0.50,0.00,23.36,27.80,30.61,4.89,26.61,1028.30,2033.00,3234.98,3180.86,3434.72,349.93,350.85,11.25,0000 0000 0000 0000 000000
2014-10-25 05:15:25,0.06,0.50,0.00,23.36,27.80,30.58,4.89,26.64,1028.33,2033.00,3234.37,3180.20,3434.08,350.29,351.57,11.28,0000 0000 0000 0000 000000
2014-10-25 05:20:26,0.01,0.50,0.00,23.36,27.80,30.60,4.86,26.67,1028.33,2033.00,3233.97,3180.00,3433.98,349.94,351.16,11.31,0000 0000 0000 0000 000000
2014-10-25 05:25:28,0.03,0.50,0.00,23.34,27.80,30.60,4.90,26.67,1028.33,2033.00,3233.39,3179.97,3433.66,350.17,351.33,11.34,0000 0000 0000 0000 000000
2014-10-25 05:30:29,0.03,0.50,0.00,23.37,27.79,30.58,4.81,26.68,1028.34,2033.00,3233.02,3179.71,3433.10,349.65,350.96,11.37,0000 0000 0000 0000 000000
2014-10-25 05:35:31,0.06,0.50,0.00,23.36,27.79,30.59,4.81,26.88,1028.34,2033.00,3232.42,3179.02,3432.74,349.67,350.95,11.39,0000 0000 0000 0000 000000
2014-10-25 05:40:32,0.08,0.50,0.00,23.33,27.77,30.59,4.80,26.82,1028.34,2033.00,3231.12,3178.12,3432.00,349.89,351.13,11.42,0000 0000 0000 0000 000000
2014-10-25 05:45:33,0.09,0.51,0.00,23.33,27.77,30.60,4.87,26.67,1028.35,2033.00,3230.21,3177.57,3431.21,350.14,351.33,11.45,0000 0000 0000 0000 000000
2014-10-25 05:50:34,0.05,0.51,0.00,23.36,27.77,30.61,4.82,26.73,1028.36,2033.00,3229.15,3177.01,3430.61,350.16,351.43,11.48,0000 0000 0000 0000 000000
2014-10-25 05:55:36,0.06,0.51,0.00,23.37,27.77,30.61,4.86,26.66,1028.37,2033.00,3228.51,3176.59,3430.00,350.24,351.58,11.51,0000 0000 0000 0000 000000
2014-10-25 06:00:37,0.06,0.51,0.00,23.37,27.77,30.59,4.83,26.68,1028.38,2033.00,3227.70,3176.00,3429.25,350.14,351.21,11.54,0000 0000 0000 0000 000000
2014-10-25 06:05:38,0.07,0.51,0.00,23.37,27.77,30.58,4.81,26.68,1028.40,2033.00,3226.81,3175.45,3428.76,349.73,351.11,11.57,0000 0000 0000 0000 000000
2014-10-25 06:10:39,0.04,0.52,0.00,23.32,27.77,30.58,4.92,26.77,1028.51,2033.00,3225.98,3174.99,3428.03,350.01,351.37,11.60,0000 0000 0000 0000 000000
2014-10-25 06:15:41,0.08,0.52,0.00,23.33,27.77,30.59,4.82,26.72,1028.74,2033.00,3225.13,3174.26,3427.39,349.62,351.06,11.63,0000 0000 0000 0000 000000
2014-10-25 06:20:42,0.01,0.52,0.00,23.36,27.76,30.58,4.76,26.69,1028.82,2033.00,3224.82,3174.00,3427.02,350.05,351.49,11.66,0000 0000 0000 0000 000000
2014-10-25 06:25:43,0.02,0.52,0.00,23.34,27.75,30.58,4.77,26.77,1028.82,2033.00,3224.08,3174.00,3426.97,349.70,351.13,11.69,0000 0000 0000 0000 000000
2014-10-25 06:30:44,0.04,0.52,0.00,23.34,27.75,30.57,4.87,26.79,1028.83,2033.00,3223.90,3173.78,3426.35,349.41,350.96,11.72,0000 0000 0000 0000 000000
2014-10-25 06:35:46,0.05,0.52,0.00,23.33,27.75,30.57,4.81,26.88,1028.87,2033.00,3223.12,3173.08,3426.01,349.86,351.41,11.75,0000 0000 0000 0000 000000
2014-10-25 06:40:47,0.00,0.52,0.00,23.35,27.75,30.56,4.84,26.88,1029.04,2033.00,3222.98,3173.00,3425.93,349.97,351.31,11.77,0000 0000 0000 0000 000000
2014-10-25 06:45:48,0.03,0.52,0.00,23.35,27.75,30.58,4.82,26.84,1029.25,2033.00,3222.61,3172.98,3425.49,350.21,351.71,11.80,0000 0000 0000 0000 000000
2014-10-25 06:50:49,0.02,0.52,0.00,23.35,27.75,30.57,4.87,26.85,1029.31,2033.00,3222.03,3172.95,3425.06,350.17,351.79,11.83,0000 0000 0000 0000 000000
2014-10-25 06:55:51,0.04,0.52,0.00,23.32,27.75,30.54,4.81,26.81,1029.31,2033.00,3221.96,3172.30,3424.99,349.80,351.50,11.86,0000 0000 0000 0000 000000
2014-10-25 07:00:52,0.05,0.53,0.00,23.30,27.74,30.56,4.91,26.79,1029.31,2033.00,3221.21,3172.02,3424.64,349.89,351.63,11.89,0000 0000 0000 0000 000000
2014-10-25 07:05:53,0.02,0.53,0.00,23.33,27.73,30.55,4.88,26.82,1029.31,2033.00,3220.68,3171.96,3424.02,350.16,351.62,11.92,0000 0000 0000 0000 000000
2014-10-25 07:10:54,0.03,0.53,0.00,23.34,27.72,30.57,4.78,26.77,1029.31,2033.00,3220.03,3171.63,3423.98,349.82,351.59,11.95,0000 0000 0000 0000 000000
2014-10-25 07:15:55,0.04,0.53,0.00,23.31,27.72,30.57,4.89,26.84,1029.34,2033.01,3219.86,3171.07,3423.61,349.89,351.66,11.98,0000 0000 0000 0000 000000
2014-10-25 07:20:57,0.03,0.53,0.00,23.31,27.72,30.53,4.90,26.85,1029.39,2033.00,3219.06,3170.93,3423.00,350.21,351.82,12.01,0000 0000 0000 0000 000000
2014-10-25 07:25:58,0.07,0.53,0.00,23.32,27.72,30.55,4.83,26.76,1029.57,2033.01,3218.71,3170.21,3422.44,349.64,351.33,12.04,0000 0000 0000 0000 000000
2014-10-25 07:30:59,0.02,0.53,0.00,23.31,27.72,30.54,4.86,26.69,1029.78,2033.00,3218.04,3170.00,3422.01,350.30,351.90,12.07,0000 0000 0000 0000 000000
2014-10-25 07:36:00,0.06,0.53,0.00,23.34,27.72,30.55,4.78,26.84,1029.80,2033.00,3217.44,3169.69,3421.57,349.67,351.50,12.10,0000 0000 0000 0000 000000
2014-10-25 07:41:01,0.03,0.54,0.00,23.34,27.72,30.58,4.89,26.87,1029.80,2033.00,3216.96,3169.04,3421.02,350.31,352.30,12.13,0000 0000 0000 0000 000000
2014-10-25 07:46:03,0.02,0.54,0.00,23.35,27.72,30.54,4.85,26.76,1029.80,2033.00,3216.38,3168.99,3420.96,350.05,351.49,12.16,0000 0000 0000 0000 000000
2014-10-25 07:51:04,0.05,0.54,0.00,23.30,27.71,30.54,4.88,26.85,1029.80,2033.00,3216.00,3168.69,3420.24,350.21,352.02,12.18,0000 0000 0000 0000 000000
2014-10-25 07:56:05,0.04,0.54,0.00,23.27,27.71,30.53,4.81,26.72,1029.80,2033.00,3215.53,3168.10,3420.00,349.98,351.64,12.21,0000 0000 0000 0000 000000
2014-10-25 08:01:07,0.01,0.54,0.00,23.31,27.70,30.54,4.86,26.75,1029.83,2033.00,3215.01,3168.00,3419.95,350.13,351.73,12.24,0000 0000 0000 0000 000000
2014-10-25 08:06:08,0.03,0.54,0.00,23.33,27.70,30.55,4.82,26.86,1029.87,2033.00,3214.80,3167.96,3419.27,349.69,351.59,12.27,0000 0000 0000 0000 000000
2014-10-25 08:11:09,0.05,0.54,0.00,23.32,27.70,30.56,4.82,26.75,1030.06,2033.02,3214.11,3167.52,3419.03,349.77,351.69,12.30,0000 0000 0000 0000 000000
2014-10-25 08:16:10,0.01,0.54,0.00,23.31,27.70,30.55,4.96,26.73,1030.22,2033.00,3213.99,3167.04,3418.99,350.96,352.81,12.33,0000 0000 0000 0000 000000
2014-10-25 08:21:12,0.04,0.54,0.00,23.28,27.70,30.53,4.87,26.63,1030.28,2033.00,3213.45,3166.99,3418.47,350.22,352.33,12.36,0000 0000 0000 0000 000000
2014-10-25 08:26:13,0.01,0.54,0.00,23.27,27.70,30.54,4.87,26.73,1030.29,2033.01,3213.02,3166.97,3418.11,349.94,351.59,12.39,0000 0000 0000 0000 000000
2014-10-25 08:31:14,0.03,0.55,0.00,23.29,27.70,30.56,4.83,26.80,1030.29,2033.00,3212.86,3166.52,3418.00,349.63,351.87,12.42,0000 0000 0000 0000 000000
2014-10-25 08:36:15,0.03,0.55,0.00,23.31,27.70,30.58,4.79,26.82,1030.29,2033.00,3212.09,3166.01,3417.87,348.98,350.91,12.45,0000 0000 0000 0000 000000
2014-10-25 08:41:16,0.02,0.55,0.00,23.32,27.70,30.56,4.78,26.88,1030.31,2033.00,3211.98,3165.98,3417.12,349.27,351.25,12.48,0000 0000 0000 0000 000000
2014-10-25 08:46:18,0.02,0.55,0.00,23.29,27.70,30.57,4.86,26.82,1030.34,2033.00,3211.51,3165.95,3417.01,350.11,352.16,12.51,0000 0000 0000 0000 000000
2014-10-25 08:51:19,0.04,0.55,0.00,23.30,27.70,30.56,4.88,26.74,1030.46,2033.01,3211.01,3165.44,3416.99,350.25,352.23,12.54,0000 0000 0000 0000 000000
2014-10-25 08:56:20,0.01,0.55,0.00,23.30,27.70,30.57,4.86,26.78,1030.61,2033.01,3210.94,3165.10,3416.92,350.42,352.41,12.57,0000 0000 0000 0000 000000
2014-10-25 09:01:21,0.04,0.55,0.00,23.31,27.71,30.57,4.82,26.77,1030.76,2033.00,3210.23,3165.00,3416.31,349.67,351.55,12.59,0000 0000 0000 0000 000000
2014-10-25 09:06:22,0.00,0.55,0.00,23.31,27.72,30.55,4.82,26.69,1030.78,2033.02,3210.00,3164.99,3416.01,350.19,352.48,12.62,0000 0000 0000 0000 000000
2014-10-25 09:11:24,0.03,0.55,0.00,23.31,27.72,30.57,4.83,26.68,1030.78,2033.01,3209.70,3164.81,3415.99,349.78,352.02,12.65,0000 0000 0000 0000 000000
2014-10-25 09:16:25,0.03,0.55,0.00,23.32,27.72,30.56,4.87,26.78,1030.78,2033.00,3209.07,3164.29,3415.93,350.04,352.24,12.68,0000 0000 0000 0000 000000
2014-10-25 09:21:26,0.02,0.55,0.00,23.31,27.72,30.54,4.88,26.77,1030.78,2033.00,3208.97,3164.02,3415.19,350.18,352.28,12.71,0000 0000 0000 0000 000000
2014-10-25 09:26:28,0.02,0.56,0.00,23.32,27.72,30.56,4.81,26.78,1030.78,2033.00,3208.24,3163.98,3415.00,349.90,351.97,12.74,0000 0000 0000 0000 000000
2014-10-25 09:31:29,0.00,0.56,0.00,23.30,27.72,30.59,4.93,26.79,1030.79,2033.00,3207.99,3163.87,3414.96,350.28,352.32,12.77,0000 0000 0000 0000 000000
2014-10-25 09:36:30,0.07,0.56,0.00,23.30,27.72,30.60,4.80,26.84,1030.80,2033.00,3207.66,3163.25,3414.33,349.76,351.94,12.80,0000 0000 0000 0000 000000
2014-10-25 09:41:32,0.01,0.56,0.00,23.32,27.72,30.60,4.91,26.77,1030.81,2033.00,3207.01,3163.00,3414.00,350.36,352.63,12.83,0000 0000 0000 0000 000000
2014-10-25 09:46:33,0.01,0.56,0.00,23.32,27.72,30.61,4.84,26.72,1030.82,2033.00,3206.83,3162.97,3413.95,350.31,352.38,12.86,0000 0000 0000 0000 000000
2014-10-25 09:51:34,0.06,0.56,0.00,23.33,27.72,30.59,4.84,26.77,1030.87,2033.00,3206.14,3162.74,3413.38,350.21,352.49,12.89,0000 0000 0000 0000 000000
2014-10-25 09:56:35,0.02,0.56,0.00,23.31,27.73,30.57,4.91,26.80,1030.95,2033.00,3206.00,3162.13,3413.02,350.21,352.54,12.92,0000 0000 0000 0000 000000
2014-10-25 10:01:37,0.02,0.56,0.00,23.32,27.74,30.58,4.92,26.80,1031.05,2033.00,3205.62,3162.01,3413.00,350.14,352.32,12.95,0000 0000 0000 0000 000000
2014-10-25 10:06:38,0.01,0.56,0.00,23.33,27.74,30.59,4.85,26.84,1031.12,2033.00,3205.02,3161.99,3412.88,349.29,351.61,12.98,0000 0000 0000 0000 000000
2014-10-25 10:11:39,0.03,0.56,0.00,23.35,27.75,30.59,4.84,26.73,1031.18,2032.99,3204.96,3161.81,3412.20,349.91,352.31,13.00,0000 0000 0000 0000 000000
2014-10-25 10:16:40,0.06,0.56,0.00,23.34,27.75,30.55,4.88,26.74,1031.25,2032.99,3204.20,3161.16,3412.01,349.81,352.16,13.03,0000 0000 0000 0000 000000
2014-10-25 10:21:41,0.00,0.56,0.00,23.34,27.75,30.60,4.86,26.82,1031.26,2032.99,3203.98,3161.01,3411.98,349.90,352.33,13.06,0000 0000 0000 0000 000000
2014-10-25 10:26:42,0.04,0.57,0.00,23.35,27.75,30.60,4.82,26.71,1031.26,2032.99,3203.43,3160.96,3411.40,349.60,352.04,13.09,0000 0000 0000 0000 000000
2014-10-25 10:31:43,0.03,0.57,0.00,23.34,27.75,30.62,4.79,26.73,1031.26,2032.99,3203.01,3160.56,3411.01,349.83,352.14,13.12,0000 0000 0000 0000 000000
2014-10-25 10:36:45,0.03,0.57,0.00,23.33,27.75,30.62,4.82,26.81,1031.26,2032.99,3202.72,3160.07,3410.98,350.10,352.41,13.15,0000 0000 0000 0000 000000
2014-10-25 10:41:46,0.02,0.57,0.00,23.32,27.75,30.59,4.77,26.73,1031.27,2032.99,3202.03,3160.00,3410.63,349.41,351.66,13.18,0000 0000 0000 0000 000000
2014-10-25 10:46:47,0.01,0.57,0.00,23.32,27.75,30.61,4.85,26.68,1031.28,2032.99,3202.00,3159.98,3410.07,349.94,352.43,13.21,0000 0000 0000 0000 000000
2014-10-25 10:51:48,0.02,0.57,0.00,23.32,27.75,30.61,4.86,26.67,1031.28,2032.99,3201.65,3159.80,3410.00,350.09,352.41,13.24,0000 0000 0000 0000 000000
2014-10-25 10:56:50,0.03,0.57,0.00,23.34,27.75,30.59,4.84,26.79,1031.29,2032.99,3201.07,3159.32,3409.98,350.13,352.49,13.27,0000 0000 0000 0000 000000
2014-10-25 11:01:51,0.02,0.57,0.00,23.33,27.75,30.60,4.76,26.72,1031.30,2032.99,3200.99,3159.05,3409.72,349.06,351.36,13.30,0000 0000 0000 0000 000000
2014-10-25 11:06:52,0.02,0.57,0.00,23.34,27.75,30.60,4.76,26.68,1031.31,2032.98,3200.75,3159.00,3409.10,349.53,351.93,13.33,0000 0000 0000 0000 000000
2014-10-25 11:11:53,0.02,0.57,0.00,23.33,27.75,30.60,4.85,26.75,1031.32,2032.99,3200.05,3158.98,3409.00,350.17,352.61,13.36,0000 0000 0000 0000 000000
2014-10-25 11:16:55,0.01,0.57,0.00,23.34,27.75,30.61,4.85,26.76,1031.39,2032.99,3199.98,3158.78,3408.99,349.92,352.25,13.38,0000 0000 0000 0000 000000
2014-10-25 11:21:56,0.03,0.57,0.00,23.36,27.75,30.60,4.89,26.73,1031.45,2032.99,3199.80,3158.36,3408.87,350.32,352.71,13.41,0000 0000 0000 0000 000000
2014-10-25 11:26:57,0.04,0.58,0.00,23.35,27.76,30.60,4.80,26.68,1031.52,2032.98,3199.10,3158.04,3408.24,349.84,352.27,13.44,0000 0000 0000 0000 000000
2014-10-25 11:31:58,0.00,0.58,0.00,23.34,27.76,30.59,4.78,26.68,1031.68,2032.99,3199.00,3158.00,3408.03,350.01,352.45,13.47,0000 0000 0000 0000 000000
2014-10-25 11:36:59,0.01,0.58,0.00,23.33,27.76,30.60,4.89,26.97,1031.70,2032.99,3198.74,3157.97,3408.00,349.99,352.45,13.50,0000 0000 0000 0000 000000
2014-10-25 11:42:01,0.01,0.58,0.00,23.32,27.76,30.58,4.79,26.77,1031.73,2032.99,3198.08,3157.88,3407.97,349.44,351.77,13.53,0000 0000 0000 0000 000000
2014-10-25 11:47:02,0.05,0.58,0.00,23.32,27.76,30.60,4.87,26.69,1031.75,2032.99,3197.99,3157.44,3407.57,349.58,352.08,13.56,0000 0000 0000 0000 000000
2014-10-25 11:52:03,0.02,0.58,0.00,23.35,27.77,30.61,4.85,26.70,1031.75,2032.99,3197.83,3157.03,3407.02,349.78,352.11,13.59,0000 0000 0000 0000 000000
2014-10-25 11:57:04,0.02,0.58,0.00,23.35,27.77,30.60,4.89,26.73,1031.75,2032.99,3197.12,3157.00,3407.00,350.93,353.40,13.62,0000 0000 0000 0000 000000
2014-10-25 12:02:06,0.00,0.58,0.00,23.34,27.77,30.58,4.82,26.89,1031.75,2032.99,3196.99,3156.98,3406.91,349.87,352.29,13.65,0000 0000 0000 0000 000000
2014-10-25 12:07:06,0.05,0.58,0.00,23.35,27.77,30.59,4.88,26.76,1031.76,2032.99,3196.70,3156.63,3406.37,350.29,352.75,13.68,0000 0000 0000 0000 000000
2014-10-25 12:12:08,0.03,0.58,0.00,23.35,27.77,30.60,4.83,26.78,1031.76,2032.98,3196.03,3156.05,3406.01,349.74,352.29,13.71,0000 0000 0000 0000 000000
2014-10-25 12:17:09,0.00,0.58,0.00,23.35,27.77,30.60,4.87,26.83,1031.76,2032.98,3195.96,3156.01,3405.99,349.93,352.37,13.74,0000 0000 0000 0000 000000
2014-10-25 12:22:11,0.03,0.58,0.00,23.37,27.77,30.59,4.88,26.71,1031.76,2032.98,3195.24,3155.98,3405.62,350.35,352.53,13.77,0000 0000 0000 0000 000000
2014-10-25 12:27:12,0.03,0.58,0.00,23.35,27.77,30.56,4.81,26.75,1031.76,2032.98,3195.00,3155.77,3405.09,349.50,351.67,13.79,0000 0000 0000 0000 000000
2014-10-25 12:32:13,0.03,0.59,0.00,23.35,27.77,30.58,4.89,26.74,1031.77,2032.99,3194.82,3155.15,3405.00,350.13,352.44,13.82,0000 0000 0000 0000 000000
2014-10-25 12:37:15,0.02,0.59,0.00,23.38,27.77,30.60,4.79,26.91,1031.78,2032.99,3194.14,3155.00,3404.97,349.75,352.17,13.85,0000 0000 0000 0000 000000
2014-10-25 12:42:16,0.01,0.59,0.00,23.35,27.77,30.58,4.81,26.70,1031.80,2032.98,3194.00,3154.99,3404.61,349.89,352.42,13.88,0000 0000 0000 0000 000000
2014-10-25 12:47:17,0.01,0.59,0.00,23.32,27.77,30.57,4.83,26.79,1031.82,2032.99,3193.85,3154.98,3404.22,349.50,352.10,13.91,0000 0000 0000 0000 000000
2014-10-25 12:52:18,0.05,0.59,0.00,23.34,27.78,30.59,4.78,26.71,1031.80,2032.99,3193.09,3154.59,3404.01,349.81,352.09,13.94,0000 0000 0000 0000 000000
2014-10-25 12:57:20,0.01,0.59,0.00,23.36,27.77,30.61,4.86,26.69,1031.97,2032.99,3192.99,3154.10,3403.99,350.21,352.63,13.97,0000 0000 0000 0000 000000
2014-10-25 13:02:21,0.03,0.59,0.00,23.35,27.78,30.60,4.87,26.82,1032.01,2032.99,3192.58,3154.01,3403.80,350.20,352.78,14.00,0000 0000 0000 0000 000000